owner,sensor,date,latitude,longitude,vertical_datum,wind_speed,wind_to_direction,wind_speed_of_gust,qcFlag 
TABS,ioos:station:wmo:42043:1,2010-01-05T09:30:00Z,28.9818,-94.9186,4.0,7.1391316,8.538471987,9.75,'11111222,11111222,11111222' 
TABS,ioos:station:wmo:42043:1,2010-01-05T10:00:00Z,28.9818,-94.9186,4.0,7.043074613,19.23220325,8.95,'11111222,11111222,11111222' 
TABS,ioos:station:wmo:42043:1,2010-01-05T10:30:00Z,28.9818,-94.9186,4.0,6.495944889,5.122337238,8.55,'11111222,11111222,11111222' 
TABS,ioos:station:wmo:42043:1,2010-01-05T11:00:00Z,28.9818,-94.9186,4.0,5.697587209,10.61941998,8.18,'11111222,11111222,11111222' 
TABS,ioos:station:wmo:42043:1,2010-01-05T11:30:00Z,28.9818,-94.9186,4.0,7.092566531,7.615768227,9.02,'11111222,11111222,11111222' 
TABS,ioos:station:wmo:42043:1,2010-01-05T12:00:00Z,28.9818,-94.9186,4.0,5.831063368,7.58792199,8.15,'11111222,11111222,11111222' 
TABS,ioos:station:wmo:42043:1,2010-01-05T12:30:00Z,28.9818,-94.9186,4.0,6.051793123,6.737265664,8.33,'11111222,11111222,11111222' 
TABS,ioos:station:wmo:42043:1,2010-01-05T13:00:00Z,28.9818,-94.9186,4.0,5.792210286,1.582686066,7.7,'11111222,11111222,11111222' 
TABS,ioos:station:wmo:42043:1,2010-01-05T13:30:00Z,28.9818,-94.9186,4.0,5.768335982,12.10839305,8.13,'11111222,11111222,11111222' 
TABS,ioos:station:wmo:42043:1,2010-01-05T14:00:00Z,28.9818,-94.9186,4.0,5.019422278,22.11910064,7.28,'11111222,11111222,11111222' 
TABS,ioos:station:wmo:42043:1,2010-01-05T14:30:00Z,28.9818,-94.9186,4.0,5.409343768,21.58479065,7.15,'11111222,11111222,11111222' 
TABS,ioos:station:wmo:42043:1,2010-01-05T15:00:00Z,28.9818,-94.9186,4.0,4.674665763,20.79965752,7.03,'11111222,11111222,11111222' 
TABS,ioos:station:wmo:42043:1,2010-01-05T15:30:00Z,28.9818,-94.9186,4.0,5.090275042,20.10786481,6.8,'11111222,11111222,11111222' 
TABS,ioos:station:wmo:42043:1,2010-01-05T16:00:00Z,28.9818,-94.9186,4.0,4.819315304,18.50988635,7.02,'11111222,11111222,11111222' 
TABS,ioos:station:wmo:42043:1,2010-01-05T16:30:00Z,28.9818,-94.9186,4.0,4.352953021,8.055414647,6.32,'11111222,11111222,11111222' 
TABS,ioos:station:wmo:42043:1,2010-01-05T17:00:00Z,28.9818,-94.9186,4.0,4.504808542,11.13509031,6.41,'11111222,11111222,11111222' 
TABS,ioos:station:wmo:42043:1,2010-01-05T17:30:00Z,28.9818,-94.9186,4.0,4.579192068,3.630749717,5.84,'11111222,11111222,11111222' 
TABS,ioos:station:wmo:42043:1,2010-01-05T18:00:00Z,28.9818,-94.9186,4.0,4.337211085,3.30418371,6.89,'11111222,11111222,11111222' 
TABS,ioos:station:wmo:42043:1,2010-01-05T18:30:00Z,28.9818,-94.9186,4.0,4.821970552,9.911381418,6.8,'11111222,11111222,11111222' 
TABS,ioos:station:wmo:42043:1,2010-01-05T19:00:00Z,28.9818,-94.9186,4.0,4.902917499,11.17218628,6.41,'11111222,11111222,11111222' 
TABS,ioos:station:wmo:42043:1,2010-01-05T19:30:00Z,28.9818,-94.9186,4.0,4.251799619,11.25683982,5.92,'11111222,11111222,11111222' 
TABS,ioos:station:wmo:42043:1,2010-01-05T20:00:00Z,28.9818,-94.9186,4.0,4.048468846,22.51073673,5.89,'11111222,11111222,11111222' 
TABS,ioos:station:wmo:42043:1,2010-01-05T20:30:00Z,28.9818,-94.9186,4.0,3.328663395,20.39461793,5.3,'11111222,11111222,11111222' 
TABS,ioos:station:wmo:42043:1,2010-01-05T21:00:00Z,28.9818,-94.9186,4.0,2.920154106,14.27393755,4.47,'11111222,11111222,11111222' 
TABS,ioos:station:wmo:42043:1,2010-01-05T21:30:00Z,28.9818,-94.9186,4.0,2.682685222,20.05583738,4.0,'11111222,11111222,11111222' 
TABS,ioos:station:wmo:42043:1,2010-01-05T22:00:00Z,28.9818,-94.9186,4.0,1.90850727,5.411646038,2.95,'11111222,11111222,11111222' 
TABS,ioos:station:wmo:42043:1,2010-01-05T22:30:00Z,28.9818,-94.9186,4.0,1.984565444,29.92364959,2.99,'11111222,11111222,11111222' 
TABS,ioos:station:wmo:42043:1,2010-01-05T23:00:00Z,28.9818,-94.9186,4.0,1.705901521,42.38634415,2.94,'11111222,11111222,11111222' 
TABS,ioos:station:wmo:42043:1,2010-01-05T23:30:00Z,28.9818,-94.9186,4.0,1.884091293,82.9877372,3.15,'11111222,11111222,11111222' 
TABS,ioos:station:wmo:42043:1,2010-01-06T00:00:00Z,28.9818,-94.9186,4.0,2.318145811,78.30189119,3.76,'11111222,11111222,11111222' 
TABS,ioos:station:wmo:42043:1,2010-01-06T00:30:00Z,28.9818,-94.9186,4.0,2.511772283,60.67917177,3.95,'11111222,11111222,11111222' 
TABS,ioos:station:wmo:42043:1,2010-01-06T01:00:00Z,28.9818,-94.9186,4.0,2.459776413,63.95544518,3.74,'11111222,11111222,11111222' 
TABS,ioos:station:wmo:42043:1,2010-01-06T01:30:00Z,28.9818,-94.9186,4.0,2.868815086,72.76473739,4.48,'11111222,11111222,11111222' 
TABS,ioos:station:wmo:42043:1,2010-01-06T02:00:00Z,28.9818,-94.9186,4.0,2.334180798,70.47789446,3.52,'11111222,11111222,11111222' 
TABS,ioos:station:wmo:42043:1,2010-01-06T02:30:00Z,28.9818,-94.9186,4.0,2.80016071,64.6242647,4.05,'11111222,11111222,11111222' 
TABS,ioos:station:wmo:42043:1,2010-01-06T03:00:00Z,28.9818,-94.9186,4.0,3.601999445,60.01800982,4.85,'11111222,11111222,11111222' 
TABS,ioos:station:wmo:42043:1,2010-01-06T03:30:00Z,28.9818,-94.9186,4.0,4.152709959,55.19979347,5.63,'11111222,11111222,11111222' 
TABS,ioos:station:wmo:42043:1,2010-01-06T04:00:00Z,28.9818,-94.9186,4.0,4.272856188,57.90898825,6.1,'11111222,11111222,11111222' 
TABS,ioos:station:wmo:42043:1,2010-01-06T04:30:00Z,28.9818,-94.9186,4.0,3.153363284,72.65643416,5.05,'11111222,11111222,11111222' 
TABS,ioos:station:wmo:42043:1,2010-01-06T05:00:00Z,28.9818,-94.9186,4.0,2.328626204,111.9388501,3.72,'11111222,11111222,11111222' 
TABS,ioos:station:wmo:42043:1,2010-01-06T05:30:00Z,28.9818,-94.9186,4.0,2.231098384,91.79834857,3.44,'11111222,11111222,11111222' 
TABS,ioos:station:wmo:42043:1,2010-01-06T06:00:00Z,28.9818,-94.9186,4.0,2.189292123,82.38765929,3.18,'11111222,11111222,11111222' 
TABS,ioos:station:wmo:42043:1,2010-01-06T06:30:00Z,28.9818,-94.9186,4.0,2.796515689,118.3982452,4.1,'11111222,11111222,11111222' 
TABS,ioos:station:wmo:42043:1,2010-01-06T07:00:00Z,28.9818,-94.9186,4.0,3.197248817,133.4795496,4.54,'11111222,11111222,11111222' 
TABS,ioos:station:wmo:42043:1,2010-01-06T07:30:00Z,28.9818,-94.9186,4.0,3.159778473,145.052837,4.95,'11111222,11111222,11111222' 
TABS,ioos:station:wmo:42043:1,2010-01-06T08:00:00Z,28.9818,-94.9186,4.0,3.172333526,127.7010693,4.81,'11111222,11111222,11111222' 
TABS,ioos:station:wmo:42043:1,2010-01-06T08:30:00Z,28.9818,-94.9186,4.0,3.358288254,127.6209364,5.52,'11111222,11111222,11111222' 
TABS,ioos:station:wmo:42043:1,2010-01-06T09:00:00Z,28.9818,-94.9186,4.0,3.998099549,130.9435873,5.23,'11111222,11111222,11111222' 
TABS,ioos:station:wmo:42043:1,2010-01-06T09:30:00Z,28.9818,-94.9186,4.0,4.486423966,111.9914994,5.96,'11111222,11111222,11111222' 
TABS,ioos:station:wmo:42043:1,2010-01-06T10:00:00Z,28.9818,-94.9186,4.0,4.47,110.0163337,6.64,'11111222,11111222,11111222' 
TABS,ioos:station:wmo:42043:1,2010-01-06T10:30:00Z,28.9818,-94.9186,4.0,4.368065934,110.9248737,5.61,'11111222,11111222,11111222' 
TABS,ioos:station:wmo:42043:1,2010-01-06T11:00:00Z,28.9818,-94.9186,4.0,4.389897493,109.4259307,5.86,'11111222,11111222,11111222' 
TABS,ioos:station:wmo:42043:1,2010-01-06T11:30:00Z,28.9818,-94.9186,4.0,4.602195128,117.2892232,6.4,'11111222,11111222,11111222' 
TABS,ioos:station:wmo:42043:1,2010-01-06T12:00:00Z,28.9818,-94.9186,4.0,4.414079746,116.2171125,6.23,'11111222,11111222,11111222' 
TABS,ioos:station:wmo:42043:1,2010-01-06T12:30:00Z,28.9818,-94.9186,4.0,5.17092835,107.5593147,6.73,'11111222,11111222,11111222' 
TABS,ioos:station:wmo:42043:1,2010-01-06T13:00:00Z,28.9818,-94.9186,4.0,5.272314482,112.5282791,7.44,'11111222,11111222,11111222' 
TABS,ioos:station:wmo:42043:1,2010-01-06T13:30:00Z,28.9818,-94.9186,4.0,5.201470946,115.8757279,7.32,'11111222,11111222,11111222' 
TABS,ioos:station:wmo:42043:1,2010-01-06T14:00:00Z,28.9818,-94.9186,4.0,5.947251466,125.6948055,7.88,'11111222,11111222,11111222' 
TABS,ioos:station:wmo:42043:1,2010-01-06T14:30:00Z,28.9818,-94.9186,4.0,6.192616571,125.2045925,7.77,'11111222,11111222,11111222' 
TABS,ioos:station:wmo:42043:1,2010-01-06T15:00:00Z,28.9818,-94.9186,4.0,5.779143535,122.2054015,7.9,'11111222,11111222,11111222' 
TABS,ioos:station:wmo:42043:1,2010-01-06T15:30:00Z,28.9818,-94.9186,4.0,6.301872738,124.3964822,8.3,'11111222,11111222,11111222' 
TABS,ioos:station:wmo:42043:1,2010-01-06T16:00:00Z,28.9818,-94.9186,4.0,6.57321839,123.8354616,8.15,'11111222,11111222,11111222' 
TABS,ioos:station:wmo:42043:1,2010-01-06T16:30:00Z,28.9818,-94.9186,4.0,6.870465778,124.3843077,8.56,'11111222,11111222,11111222' 
TABS,ioos:station:wmo:42043:1,2010-01-06T17:00:00Z,28.9818,-94.9186,4.0,7.175409396,123.1145934,8.83,'11111222,11111222,11111222' 
TABS,ioos:station:wmo:42043:1,2010-01-06T17:30:00Z,28.9818,-94.9186,4.0,7.137114263,132.0472057,9.27,'11111222,11111222,11111222' 
TABS,ioos:station:wmo:42043:1,2010-01-06T18:00:00Z,28.9818,-94.9186,4.0,7.605767548,138.9986341,9.73,'11111222,11111222,11111222' 
TABS,ioos:station:wmo:42043:1,2010-01-06T18:30:00Z,28.9818,-94.9186,4.0,7.228014942,136.1214181,9.51,'11111222,11111222,11111222' 
TABS,ioos:station:wmo:42043:1,2010-01-06T19:00:00Z,28.9818,-94.9186,4.0,7.030960105,141.4677595,9.49,'11111222,11111222,11111222' 
TABS,ioos:station:wmo:42043:1,2010-01-06T19:30:00Z,28.9818,-94.9186,4.0,7.221661859,139.6055427,9.46,'11111222,11111222,11111222' 
TABS,ioos:station:wmo:42043:1,2010-01-06T20:00:00Z,28.9818,-94.9186,4.0,7.458002414,143.1764937,9.63,'11111222,11111222,11111222' 
TABS,ioos:station:wmo:42043:1,2010-01-06T20:30:00Z,28.9818,-94.9186,4.0,7.444897582,141.0520336,9.59,'11111222,11111222,11111222' 
TABS,ioos:station:wmo:42043:1,2010-01-06T21:00:00Z,28.9818,-94.9186,4.0,7.339223392,142.0842334,9.3,'11111222,11111222,11111222' 
TABS,ioos:station:wmo:42043:1,2010-01-06T21:30:00Z,28.9818,-94.9186,4.0,7.035630746,141.2896197,9.09,'11111222,11111222,11111222' 
TABS,ioos:station:wmo:42043:1,2010-01-06T22:00:00Z,28.9818,-94.9186,4.0,7.208564351,146.7731622,8.86,'11111222,11111222,11111222' 
TABS,ioos:station:wmo:42043:1,2010-01-06T22:30:00Z,28.9818,-94.9186,4.0,7.087996896,145.0546278,9.12,'11111222,11111222,11111222' 
TABS,ioos:station:wmo:42043:1,2010-01-06T23:00:00Z,28.9818,-94.9186,4.0,7.048475012,147.2797131,9.03,'11111222,11111222,11111222' 
TABS,ioos:station:wmo:42043:1,2010-01-06T23:30:00Z,28.9818,-94.9186,4.0,8.203444399,148.3058458,10.47,'11111222,11111222,11111222' 
TABS,ioos:station:wmo:42043:1,2010-01-07T00:00:00Z,28.9818,-94.9186,4.0,7.277801866,146.6595811,9.23,'11111222,11111222,11111222' 
TABS,ioos:station:wmo:42043:1,2010-01-07T00:30:00Z,28.9818,-94.9186,4.0,7.000178569,143.5396467,9.03,'11111222,11111222,11111222' 
TABS,ioos:station:wmo:42043:1,2010-01-07T01:00:00Z,28.9818,-94.9186,4.0,6.754331943,151.044545,8.77,'11111222,11111222,11111222' 
TABS,ioos:station:wmo:42043:1,2010-01-07T01:30:00Z,28.9818,-94.9186,4.0,6.110400969,143.7867852,7.86,'11111222,11111222,11111222' 
TABS,ioos:station:wmo:42043:1,2010-01-07T02:00:00Z,28.9818,-94.9186,4.0,6.960114942,152.2570709,8.68,'11111222,11111222,11111222' 
TABS,ioos:station:wmo:42043:1,2010-01-07T02:30:00Z,28.9818,-94.9186,4.0,6.367079393,144.9124354,8.01,'11111222,11111222,11111222' 
TABS,ioos:station:wmo:42043:1,2010-01-07T03:00:00Z,28.9818,-94.9186,4.0,5.67948061,147.877274,7.29,'11111222,11111222,11111222' 
TABS,ioos:station:wmo:42043:1,2010-01-07T03:30:00Z,28.9818,-94.9186,4.0,6.034716232,152.0339024,7.43,'11111222,11111222,11111222' 
TABS,ioos:station:wmo:42043:1,2010-01-07T04:00:00Z,28.9818,-94.9186,4.0,5.737752173,153.3905639,7.16,'11111222,11111222,11111222' 
TABS,ioos:station:wmo:42043:1,2010-01-07T04:30:00Z,28.9818,-94.9186,4.0,7.266395255,157.8474392,10.31,'11111222,11111222,11111222' 
TABS,ioos:station:wmo:42043:1,2010-01-07T05:00:00Z,28.9818,-94.9186,4.0,5.762751079,155.1695752,7.35,'11111222,11111222,11111222' 
TABS,ioos:station:wmo:42043:1,2010-01-07T05:30:00Z,28.9818,-94.9186,4.0,5.65692496,163.3592128,7.03,'11111222,11111222,11111222' 
TABS,ioos:station:wmo:42043:1,2010-01-07T06:00:00Z,28.9818,-94.9186,4.0,4.813314866,164.5780852,6.09,'11111222,11111222,11111222' 
TABS,ioos:station:wmo:42043:1,2010-01-07T06:30:00Z,28.9818,-94.9186,4.0,4.392561895,165.362908,5.59,'11111222,11111222,11111222' 
TABS,ioos:station:wmo:42043:1,2010-01-07T07:00:00Z,28.9818,-94.9186,4.0,5.129337189,167.6168214,6.97,'11111222,11111222,11111222' 
TABS,ioos:station:wmo:42043:1,2010-01-07T07:30:00Z,28.9818,-94.9186,4.0,4.809407448,167.7557112,5.85,'11111222,11111222,11111222' 
TABS,ioos:station:wmo:42043:1,2010-01-07T08:00:00Z,28.9818,-94.9186,4.0,3.663659373,169.3037247,4.89,'11111222,11111222,11111222' 
TABS,ioos:station:wmo:42043:1,2010-01-07T08:30:00Z,28.9818,-94.9186,4.0,4.603531253,171.2540686,5.79,'11111222,11111222,11111222' 
TABS,ioos:station:wmo:42043:1,2010-01-07T09:00:00Z,28.9818,-94.9186,4.0,4.567931698,171.6927418,5.73,'11111222,11111222,11111222' 
TABS,ioos:station:wmo:42043:1,2010-01-07T09:30:00Z,28.9818,-94.9186,4.0,4.984857069,182.5296987,6.42,'11111222,11111222,11111222' 
TABS,ioos:station:wmo:42043:1,2010-01-07T10:00:00Z,28.9818,-94.9186,4.0,2.877377278,190.4118943,3.65,'11111222,11111222,11111222' 
TABS,ioos:station:wmo:42043:1,2010-01-07T10:30:00Z,28.9818,-94.9186,4.0,2.450550958,254.375802,3.78,'11111222,11111222,11111222' 
TABS,ioos:station:wmo:42043:1,2010-01-07T11:00:00Z,28.9818,-94.9186,4.0,2.672620437,220.9036977,4.33,'11111222,11111222,11111222' 
TABS,ioos:station:wmo:42043:1,2010-01-07T11:30:00Z,28.9818,-94.9186,4.0,2.200363606,271.0416242,5.49,'11111222,11111222,11111222' 
TABS,ioos:station:wmo:42043:1,2010-01-07T12:00:00Z,28.9818,-94.9186,4.0,4.311159937,271.3291269,5.88,'11111222,11111222,11111222' 
TABS,ioos:station:wmo:42043:1,2010-01-07T12:30:00Z,28.9818,-94.9186,4.0,2.853506615,281.1130145,3.94,'11111222,11111222,11111222' 
TABS,ioos:station:wmo:42043:1,2010-01-07T13:00:00Z,28.9818,-94.9186,4.0,2.40077071,289.7179929,4.21,'11111222,11111222,11111222' 
TABS,ioos:station:wmo:42043:1,2010-01-07T13:30:00Z,28.9818,-94.9186,4.0,2.476307735,287.630039,3.49,'11111222,11111222,11111222' 
TABS,ioos:station:wmo:42043:1,2010-01-07T14:00:00Z,28.9818,-94.9186,4.0,8.435312679,332.6146113,11.65,'11111222,11111222,11111222' 
TABS,ioos:station:wmo:42043:1,2010-01-07T14:30:00Z,28.9818,-94.9186,4.0,8.939988814,333.0621977,11.5,'11111222,11111222,11111222' 
TABS,ioos:station:wmo:42043:1,2010-01-07T15:00:00Z,28.9818,-94.9186,4.0,8.397737791,330.9319997,10.72,'11111222,11111222,11111222' 
TABS,ioos:station:wmo:42043:1,2010-01-07T15:30:00Z,28.9818,-94.9186,4.0,9.530188875,323.4907014,13.25,'11111222,11111222,11111222' 
TABS,ioos:station:wmo:42043:1,2010-01-07T16:00:00Z,28.9818,-94.9186,4.0,9.466678404,349.9006763,14.92,'11111222,11111222,11111222' 
TABS,ioos:station:wmo:42043:1,2010-01-07T16:30:00Z,28.9818,-94.9186,4.0,12.21345569,31.71171017,15.11,'11111222,11111222,11111222' 
TABS,ioos:station:wmo:42043:1,2010-01-07T17:00:00Z,28.9818,-94.9186,4.0,11.41504709,20.6732799,15.36,'11111222,11111222,11111222' 
TABS,ioos:station:wmo:42043:1,2010-01-07T17:30:00Z,28.9818,-94.9186,4.0,13.11154072,34.46547054,16.79,'11111222,11111222,11111222' 
TABS,ioos:station:wmo:42043:1,2010-01-07T18:00:00Z,28.9818,-94.9186,4.0,12.34768399,26.81379831,15.89,'11111222,11111222,11111222' 
TABS,ioos:station:wmo:42043:1,2010-01-07T18:30:00Z,28.9818,-94.9186,4.0,12.20469582,26.2078664,15.64,'11111222,11111222,11111222' 
TABS,ioos:station:wmo:42043:1,2010-01-07T19:00:00Z,28.9818,-94.9186,4.0,12.0043867,30.1530878,15.97,'11111222,11111222,11111222' 
TABS,ioos:station:wmo:42043:1,2010-01-07T19:30:00Z,28.9818,-94.9186,4.0,11.5677353,30.66616757,14.67,'11111222,11111222,11111222' 
TABS,ioos:station:wmo:42043:1,2010-01-07T20:00:00Z,28.9818,-94.9186,4.0,11.85922847,34.86903088,14.83,'11111222,11111222,11111222' 
TABS,ioos:station:wmo:42043:1,2010-01-07T20:30:00Z,28.9818,-94.9186,4.0,12.36410935,37.11057121,15.54,'11111222,11111222,11111222' 
TABS,ioos:station:wmo:42043:1,2010-01-07T21:00:00Z,28.9818,-94.9186,4.0,10.82327584,30.97255236,13.39,'11111222,11111222,11111222' 
TABS,ioos:station:wmo:42043:1,2010-01-07T21:30:00Z,28.9818,-94.9186,4.0,12.00753097,25.02815514,14.77,'11111222,11111222,11111222' 
TABS,ioos:station:wmo:42043:1,2010-01-07T22:00:00Z,28.9818,-94.9186,4.0,11.95688923,30.89772998,15.42,'11111222,11111222,11111222' 
TABS,ioos:station:wmo:42043:1,2010-01-07T22:30:00Z,28.9818,-94.9186,4.0,12.02168457,28.84601248,14.76,'11111222,11111222,11111222' 
TABS,ioos:station:wmo:42043:1,2010-01-07T23:00:00Z,28.9818,-94.9186,4.0,10.92539244,22.55102274,14.92,'11111222,11111222,11111222' 
TABS,ioos:station:wmo:42043:1,2010-01-07T23:30:00Z,28.9818,-94.9186,4.0,11.00385841,32.11548337,14.22,'11111222,11111222,11111222' 
TABS,ioos:station:wmo:42043:1,2010-01-08T00:00:00Z,28.9818,-94.9186,4.0,11.46302752,31.15205829,14.4,'11111222,11111222,11111222' 
TABS,ioos:station:wmo:42043:1,2010-01-08T00:30:00Z,28.9818,-94.9186,4.0,10.47507995,21.74020606,13.83,'11111222,11111222,11111222' 
TABS,ioos:station:wmo:42043:1,2010-01-08T01:00:00Z,28.9818,-94.9186,4.0,10.59896221,26.5647786,14.34,'11111222,11111222,11111222' 
TABS,ioos:station:wmo:42043:1,2010-01-08T01:30:00Z,28.9818,-94.9186,4.0,10.50162368,21.213521,13.81,'11111222,11111222,11111222' 
TABS,ioos:station:wmo:42043:1,2010-01-08T02:00:00Z,28.9818,-94.9186,4.0,11.57689509,25.25880579,15.62,'11111222,11111222,11111222' 
TABS,ioos:station:wmo:42043:1,2010-01-08T02:30:00Z,28.9818,-94.9186,4.0,11.42247346,25.95909152,15.03,'11111222,11111222,11111222' 
TABS,ioos:station:wmo:42043:1,2010-01-08T03:00:00Z,28.9818,-94.9186,4.0,11.2787322,29.36024167,15.29,'11111222,11111222,11111222' 
TABS,ioos:station:wmo:42043:1,2010-01-08T03:30:00Z,28.9818,-94.9186,4.0,11.44612598,25.51257359,14.24,'11111222,11111222,11111222' 
TABS,ioos:station:wmo:42043:1,2010-01-08T04:00:00Z,28.9818,-94.9186,4.0,11.34400723,28.59808951,14.68,'11111222,11111222,11111222' 
TABS,ioos:station:wmo:42043:1,2010-01-08T04:30:00Z,28.9818,-94.9186,4.0,11.52653027,25.5421477,14.98,'11111222,11111222,11111222' 
TABS,ioos:station:wmo:42043:1,2010-01-08T05:00:00Z,28.9818,-94.9186,4.0,11.87697352,33.00740095,16.24,'11111222,11111222,11111222' 
TABS,ioos:station:wmo:42043:1,2010-01-08T05:30:00Z,28.9818,-94.9186,4.0,11.81575643,26.10937238,15.42,'11111222,11111222,11111222' 
TABS,ioos:station:wmo:42043:1,2010-01-08T06:00:00Z,28.9818,-94.9186,4.0,11.26870445,36.22894154,14.5,'11111222,11111222,11111222' 
TABS,ioos:station:wmo:42043:1,2010-01-08T06:30:00Z,28.9818,-94.9186,4.0,11.8143726,32.62712579,14.72,'11111222,11111222,11111222' 
TABS,ioos:station:wmo:42043:1,2010-01-08T07:00:00Z,28.9818,-94.9186,4.0,11.91525073,25.6615437,15.49,'11111222,11111222,11111222' 
TABS,ioos:station:wmo:42043:1,2010-01-08T07:30:00Z,28.9818,-94.9186,4.0,11.95572666,29.8456517,16.5,'11111222,11111222,11111222' 
TABS,ioos:station:wmo:42043:1,2010-01-08T08:00:00Z,28.9818,-94.9186,4.0,11.95175719,30.85659427,15.31,'11111222,11111222,11111222' 
TABS,ioos:station:wmo:42043:1,2010-01-08T08:30:00Z,28.9818,-94.9186,4.0,11.93444175,23.19202196,16.07,'11111222,11111222,11111222' 
TABS,ioos:station:wmo:42043:1,2010-01-08T09:00:00Z,28.9818,-94.9186,4.0,12.16472359,26.03817904,17.38,'11111222,11111222,11111222' 
TABS,ioos:station:wmo:42043:1,2010-01-08T09:30:00Z,28.9818,-94.9186,4.0,12.15382244,21.98498371,15.67,'11111222,11111222,11111222' 
TABS,ioos:station:wmo:42043:1,2010-01-08T10:00:00Z,28.9818,-94.9186,4.0,10.97590543,1.879373196,16.97,'11111222,11111222,11111222' 
TABS,ioos:station:wmo:42043:1,2010-01-08T10:30:00Z,28.9818,-94.9186,4.0,10.32279032,342.4074061,16.01,'11111222,11111222,11111222' 
TABS,ioos:station:wmo:42043:1,2010-01-08T11:00:00Z,28.9818,-94.9186,4.0,11.84422644,21.23521699,16.4,'11111222,11111222,11111222' 
TABS,ioos:station:wmo:42043:1,2010-01-08T11:30:00Z,28.9818,-94.9186,4.0,11.61961273,16.34476847,15.44,'11111222,11111222,11111222' 
TABS,ioos:station:wmo:42043:1,2010-01-08T12:00:00Z,28.9818,-94.9186,4.0,11.56935608,14.51645555,16.32,'11111222,11111222,11111222' 
TABS,ioos:station:wmo:42043:1,2010-01-08T12:30:00Z,28.9818,-94.9186,4.0,12.81356313,311.1395582,17.56,'11111222,11111222,11111222' 
TABS,ioos:station:wmo:42043:1,2010-01-08T13:00:00Z,28.9818,-94.9186,4.0,12.04878417,21.11236182,15.68,'11111222,11111222,11111222' 
TABS,ioos:station:wmo:42043:1,2010-01-08T13:30:00Z,28.9818,-94.9186,4.0,11.19932141,24.13883588,14.99,'11111222,11111222,11111222' 
TABS,ioos:station:wmo:42043:1,2010-01-08T14:00:00Z,28.9818,-94.9186,4.0,10.1889548,18.18573995,14.19,'11111222,11111222,11111222' 
TABS,ioos:station:wmo:42043:1,2010-01-08T14:30:00Z,28.9818,-94.9186,4.0,9.917282894,14.06402447,13.88,'11111222,11111222,11111222' 
TABS,ioos:station:wmo:42043:1,2010-01-08T15:00:00Z,28.9818,-94.9186,4.0,9.48363327,322.066608,13.47,'11111222,11111222,11111222' 
TABS,ioos:station:wmo:42043:1,2010-01-08T15:30:00Z,28.9818,-94.9186,4.0,9.208192005,4.484385064,13.4,'11111222,11111222,11111222' 
TABS,ioos:station:wmo:42043:1,2010-01-08T16:00:00Z,28.9818,-94.9186,4.0,10.09091175,18.66811402,13.03,'11111222,11111222,11111222' 
TABS,ioos:station:wmo:42043:1,2010-01-08T16:30:00Z,28.9818,-94.9186,4.0,9.844800658,16.28090783,13.4,'11111222,11111222,11111222' 
TABS,ioos:station:wmo:42043:1,2010-01-08T17:00:00Z,28.9818,-94.9186,4.0,10.52019962,17.19457431,14.07,'11111222,11111222,11111222' 
TABS,ioos:station:wmo:42043:1,2010-01-08T17:30:00Z,28.9818,-94.9186,4.0,9.395488279,15.8111235,12.7,'11111222,11111222,11111222' 
TABS,ioos:station:wmo:42043:1,2010-01-08T18:00:00Z,28.9818,-94.9186,4.0,9.645600033,16.25520416,12.76,'11111222,11111222,11111222' 
TABS,ioos:station:wmo:42043:1,2010-01-08T18:30:00Z,28.9818,-94.9186,4.0,9.272162639,14.17088375,12.35,'11111222,11111222,11111222' 
TABS,ioos:station:wmo:42043:1,2010-01-08T19:00:00Z,28.9818,-94.9186,4.0,8.784104963,11.09223156,11.91,'11111222,11111222,11111222' 
TABS,ioos:station:wmo:42043:1,2010-01-08T19:30:00Z,28.9818,-94.9186,4.0,8.253393242,3.264329161,11.38,'11111222,11111222,11111222' 
TABS,ioos:station:wmo:42043:1,2010-01-08T20:00:00Z,28.9818,-94.9186,4.0,7.96686262,7.428079553,10.58,'11111222,11111222,11111222' 
TABS,ioos:station:wmo:42043:1,2010-01-08T20:30:00Z,28.9818,-94.9186,4.0,8.482529104,343.4235084,11.74,'11111222,11111222,11111222' 
TABS,ioos:station:wmo:42043:1,2010-01-08T21:00:00Z,28.9818,-94.9186,4.0,8.457706545,10.35308537,12.05,'11111222,11111222,11111222' 
TABS,ioos:station:wmo:42043:1,2010-01-08T21:30:00Z,28.9818,-94.9186,4.0,7.985242639,12.36513338,11.03,'11111222,11111222,11111222' 
TABS,ioos:station:wmo:42043:1,2010-01-08T22:00:00Z,28.9818,-94.9186,4.0,8.19334486,13.40845308,11.62,'11111222,11111222,11111222' 
TABS,ioos:station:wmo:42043:1,2010-01-08T22:30:00Z,28.9818,-94.9186,4.0,8.118725269,10.21624148,11.0,'11111222,11111222,11111222' 
TABS,ioos:station:wmo:42043:1,2010-01-08T23:00:00Z,28.9818,-94.9186,4.0,7.984484955,16.89144579,11.13,'11111222,11111222,11111222' 
TABS,ioos:station:wmo:42043:1,2010-01-08T23:30:00Z,28.9818,-94.9186,4.0,7.685024398,8.530535203,11.06,'11111222,11111222,11111222' 
TABS,ioos:station:wmo:42043:1,2010-01-09T00:00:00Z,28.9818,-94.9186,4.0,7.358675152,13.67719892,10.14,'11111222,11111222,11111222' 
TABS,ioos:station:wmo:42043:1,2010-01-09T00:30:00Z,28.9818,-94.9186,4.0,7.554634339,6.231087278,10.35,'11111222,11111222,11111222' 
TABS,ioos:station:wmo:42043:1,2010-01-09T01:00:00Z,28.9818,-94.9186,4.0,7.672919914,5.309135467,10.26,'11111222,11111222,11111222' 
TABS,ioos:station:wmo:42043:1,2010-01-09T01:30:00Z,28.9818,-94.9186,4.0,7.135895179,335.0508634,10.46,'11111222,11111222,11111222' 
TABS,ioos:station:wmo:42043:1,2010-01-09T02:00:00Z,28.9818,-94.9186,4.0,7.873912623,5.319377687,12.4,'11111222,11111222,11111222' 
TABS,ioos:station:wmo:42043:1,2010-01-09T02:30:00Z,28.9818,-94.9186,4.0,8.265137627,12.79173508,11.08,'11111222,11111222,11111222' 
TABS,ioos:station:wmo:42043:1,2010-01-09T03:00:00Z,28.9818,-94.9186,4.0,8.10319073,15.45952115,11.09,'11111222,11111222,11111222' 
TABS,ioos:station:wmo:42043:1,2010-01-09T03:30:00Z,28.9818,-94.9186,4.0,8.306629882,15.35771545,11.13,'11111222,11111222,11111222' 
TABS,ioos:station:wmo:42043:1,2010-01-09T04:00:00Z,28.9818,-94.9186,4.0,7.971681128,20.63990885,10.58,'11111222,11111222,11111222' 